"Time","Temp","Dewpoint","Humidity","Pressure","Direction","Speed","Gust","Precip","PrecipRate"
"00:04:56","38.4","32.7","79.8","30.31","333","0","0","0.00","0.00"
"00:09:59","38.4","32.5","79","30.31","333","0","0","0.00","0.00"
"00:14:58","38.4","32.5","79","30.31","333","0","0","0.00","0.00"
"00:19:59","38.4","32.5","79","30.30","333","0","0","0.00","0.00"
"00:24:57","38.4","32.2","78.3","30.30","333","0","0","0.00","0.00"
"00:29:59","38.4","32.1","78","30.30","333","0","0","0.00","0.00"
"00:34:57","38.5","32.5","78.7","30.29","333","0","0","0.00","0.00"
"00:39:57","38.6","32.5","78.6","30.29","333","0","0","0.00","0.00"
"00:44:59","38.6","32.5","78.8","30.29","333","0","0","0.00","0.00"
"00:49:57","38.6","32.6","79","30.29","333","0","0","0.00","0.00"
"00:54:59","38.6","32.6","79","30.29","333","0","0","0.00","0.00"
"00:59:58","38.6","32.9","79.7","30.29","333","0","0","0.00","0.00"
"01:04:56","38.6","32.7","79.2","30.29","333","0","0","0.00","0.00"
"01:09:59","38.6","32.6","79","30.29","333","0","0","0.00","0.00"
"01:14:59","38.6","32.6","79","30.29","333","0","0","0.00","0.00"
"01:19:57","38.6","32.6","78.8","30.29","333","0","0","0.00","0.00"
"01:24:56","38.6","32.6","79","30.29","333","0","0","0.00","0.00"
"01:29:58","38.6","32.6","79","30.29","333","0","0","0.00","0.00"
"01:34:56","38.6","32.6","79","30.28","333","0","0","0.00","0.00"
"01:39:56","38.6","32.6","79","30.28","333","0","0","0.00","0.00"
"01:44:58","38.6","32.6","79","30.28","333","0","0","0.00","0.00"
"01:49:56","38.6","32.6","79.1","30.28","333","0","0","0.00","0.00"
"01:54:59","38.6","33","79.9","30.28","333","0","0","0.00","0.00"
"01:59:57","38.6","33.1","80.3","30.29","333","0","0","0.00","0.00"
"02:04:59","38.7","33.2","80.3","30.29","333","0","0","0.00","0.00"
"02:09:58","38.7","33.2","80.4","30.29","333","0","0","0.00","0.00"
"02:14:58","38.7","33.3","80.7","30.29","333","0","0","0.00","0.00"
"02:19:57","38.6","33","80.1","30.29","333","0","0","0.00","0.00"
"02:24:59","38.6","33.3","81","30.29","333","0","0","0.00","0.00"
"02:29:57","38.6","33.3","80.8","30.29","333","0","0","0.00","0.00"
"02:34:59","38.6","33.2","80.6","30.29","333","0","0","0.00","0.00"
"02:39:59","38.6","33.1","80.2","30.29","333","0","0","0.00","0.00"
"02:44:57","38.7","33.6","81.7","30.29","333","0","0","0.00","0.00"
"02:49:59","38.7","33.4","81","30.29","333","0","0","0.00","0.00"
"02:54:58","38.6","33.2","80.6","30.29","333","0","0","0.00","0.00"
"02:59:56","38.6","33.3","81","30.29","333","0","0","0.00","0.00"
"03:04:59","38.6","33.3","81","30.28","333","0","0","0.00","0.00"
"03:09:58","38.6","33.3","81","30.28","333","0","0","0.00","0.00"
"03:14:58","38.6","33.3","81.2","30.28","333","0","0","0.00","0.00"
"03:19:56","38.6","33.6","82","30.28","333","0","0","0.00","0.00"
"03:24:58","38.5","33.5","82","30.28","333","0","0","0.00","0.00"
"03:29:56","38.5","33.5","82","30.28","333","0","0","0.00","0.00"
"03:34:58","38.4","33.5","82.1","30.27","333","0","0","0.00","0.00"
"03:39:58","38.5","33.7","82.8","30.27","333","0","0","0.00","0.00"
"03:44:56","38.5","33.7","82.7","30.27","333","0","0","0.00","0.00"
"03:49:58","38.5","33.7","82.7","30.27","333","0","0","0.00","0.00"
"03:54:56","38.6","33.9","83","30.27","333","0","0","0.00","0.00"
"03:59:58","38.6","33.8","82.7","30.27","333","0","0","0.00","0.00"
"04:04:56","38.6","33.9","83","30.27","333","0","0","0.00","0.00"
"04:09:59","38.6","34","83.2","30.27","333","0","0","0.00","0.00"
"04:14:59","38.6","33.9","83","30.27","333","0","0","0.00","0.00"
"04:19:58","38.7","34","83","30.27","333","0","0","0.00","0.00"
"04:24:56","38.7","34","83","30.27","333","0","0","0.00","0.00"
"04:29:58","38.7","34","82.9","30.27","333","0","0","0.00","0.00"
"04:34:56","38.7","33.9","82.6","30.25","333","0","0","0.00","0.00"
"04:39:57","38.7","33.8","82.3","30.25","333","0","0","0.00","0.00"
"04:44:59","38.8","34","82.9","30.25","333","0","0","0.00","0.00"
"04:49:56","38.8","33.8","82.1","30.25","333","0","0","0.00","0.00"
"04:54:59","38.8","33.9","82.5","30.25","333","0","0","0.00","0.00"
"04:59:57","38.8","34.1","83","30.25","333","0","0","0.00","0.00"
"05:04:59","38.8","34.1","83","30.25","333","0","0","0.00","0.00"
"05:09:58","38.8","34.1","83","30.25","333","0","0","0.00","0.00"
"05:14:59","38.8","34.1","83","30.25","333","0","0","0.00","0.00"
"05:19:57","38.9","34.1","82.8","30.25","333","0","0","0.00","0.00"
"05:24:59","38.9","34.2","83","30.25","333","0","0","0.00","0.00"
"05:29:57","38.9","34.2","83","30.25","333","0","0","0.00","0.00"
"05:34:59","38.9","34.2","83","30.24","333","0","0","0.00","0.00"
"05:39:56","39","34.6","84","30.24","333","0","0","0.00","0.00"
"05:44:57","39","34.4","83.2","30.25","333","0","0","0.00","0.00"
"05:49:59","39.1","34.4","83","30.25","333","0","0","0.00","0.00"
"05:54:58","39.1","34.6","83.6","30.25","333","0","0","0.00","0.00"
"05:59:56","39.2","34.7","83.5","30.25","333","0","0","0.00","0.00"
"06:04:58","39.3","34.9","84","30.24","333","0","0","0.00","0.00"
"06:09:58","39.3","34.9","84","30.24","333","0","0","0.00","0.00"
"06:14:58","39.3","34.9","84","30.24","333","0","0","0.00","0.00"
"06:19:56","39.3","34.9","84","30.24","333","0","0","0.00","0.00"
"06:24:59","39.3","34.7","83.3","30.24","333","0","0","0.00","0.00"
"06:29:57","39.3","34.9","84","30.25","333","0","0","0.00","0.00"
"06:34:59","39.4","35","84","30.25","333","0","0","0.00","0.00"
"06:39:59","39.4","35","83.8","30.25","333","0","0","0.00","0.00"
"06:44:57","39.5","35","83.6","30.25","333","0","0","0.00","0.00"
"06:49:56","39.5","35.3","84.8","30.24","333","0","0","0.00","0.00"
"06:54:58","39.5","35.4","85","30.24","333","0","0","0.00","0.00"
"06:59:56","39.5","35.4","85","30.24","333","0","0","0.00","0.00"
"07:04:58","39.5","35.7","85.9","30.24","333","0","0","0.00","0.00"
"07:09:57","39.5","36","87","30.24","333","0","0","0.00","0.00"
"07:14:57","39.4","35.9","87","30.24","333","0","0","0.00","0.00"
"07:19:56","39.4","36.1","87.8","30.24","333","0","0","0.00","0.00"
"07:24:58","39.3","36","88","30.24","333","0","0","0.00","0.00"
"07:29:56","39.1","35.8","88","30.24","333","0","0","0.00","0.00"
"07:34:58","39.1","36","88.9","30.23","333","0","0","0.00","0.00"
"07:39:58","39","36.2","89.5","30.23","333","0","0","0.00","0.00"
"07:44:57","39","36.3","90","30.24","331","0","2.4","0.00","0.00"
"07:49:59","38.9","36.2","90.2","30.24","331","1.3","2.4","0.00","0.00"
"07:54:56","38.9","36.5","91","30.24","331","1.1","2.4","0.00","0.00"
"07:59:59","38.9","36.5","91","30.24","331","0.2","2.3","0.00","0.00"
"08:04:56","38.9","36.5","91","30.24","331","0.1","1.2","0.00","0.00"
"08:09:56","38.9","36.7","91.6","30.24","331","0","0","0.00","0.00"
"08:14:59","38.9","36.8","92","30.24","331","0","0","0.00","0.00"
"08:19:57","39","36.9","92","30.24","331","0","0","0.00","0.00"
"08:24:58","39.1","37","92","30.24","331","0.1","1.2","0.00","0.00"
"08:29:56","39.2","37.1","92","30.24","331","0","0","0.00","0.00"
"08:34:57","39.3","37.2","92","30.23","331","0","0","0.00","0.00"
"08:39:56","39.3","37.2","92","30.23","331","0","0","0.00","0.00"
"08:44:58","39.4","37.4","92.6","30.24","331","0","0","0.00","0.00"
"08:49:59","39.5","37.6","93","30.24","331","0","0","0.00","0.00"
"08:54:56","39.6","37.7","93","30.24","331","0","0","0.00","0.00"
"08:59:57","39.7","37.8","93","30.24","331","1","3.6","0.00","0.00"
"09:04:58","39.7","37.8","93","30.24","297","1.5","4.8","0.00","0.00"
"09:09:58","39.8","37.9","93","30.24","198","0.7","2.4","0.00","0.00"
"09:14:57","39.9","38","93","30.24","197","1.2","3.6","0.00","0.00"
"09:19:59","40","38.1","93","30.23","191","1.7","4.8","0.00","0.00"
"09:24:56","40","38.1","93","30.23","178","1.9","3.6","0.00","0.00"
"09:29:57","40","38.1","93","30.23","167","0.5","3.6","0.00","0.00"
"09:34:59","40.1","38.3","93.5","30.23","132","0.8","4.8","0.00","0.00"
"09:39:58","40.1","38.5","94","30.23","138","1.5","4.8","0.00","0.00"
"09:44:56","40.2","38.6","94","30.23","149","2.5","4.8","0.00","0.00"
"09:49:57","40.2","38.6","94","30.23","149","1","4.6","0.00","0.00"
"09:54:59","40.3","38.7","94","30.23","148","1","2.4","0.00","0.00"
"09:59:56","40.4","38.8","94","30.23","148","0.5","3.6","0.00","0.00"
"10:04:58","40.4","38.8","94","30.23","148","0.6","2.4","0.00","0.00"
"10:09:57","40.4","38.8","94","30.23","176","2.1","6","0.00","0.00"
"10:14:56","40.4","38.8","94","30.23","180","2.2","4.8","0.00","0.00"
"10:19:59","40.4","38.8","94","30.23","180","1.9","3.6","0.00","0.00"
"10:24:58","40.5","38.9","94","30.23","180","0.4","2.4","0.00","0.00"
"10:29:56","40.5","38.9","94","30.23","180","1.5","3.6","0.00","0.00"
"10:34:58","40.6","39","94","30.22","180","1.4","3.6","0.00","0.00"
"10:39:57","40.6","39","94","30.22","180","1.1","3.6","0.00","0.00"
"10:44:59","40.7","39.1","94","30.22","180","1.9","3.6","0.00","0.00"
"10:49:56","40.7","39.2","94.3","30.21","180","1.6","3.6","0.00","0.00"
"10:54:58","40.9","39.5","94.8","30.21","180","1.6","4.8","0.00","0.00"
"10:59:59","40.9","39.3","94.1","30.21","180","1.5","3.6","0.00","0.00"
"11:04:57","40.9","39.3","94","30.19","166","2","6","0.00","0.00"
"11:09:56","41.1","39.8","95","30.19","170","1.5","6","0.00","0.00"
"11:14:59","41.1","39.5","94","30.19","136","1.4","5.8","0.00","0.00"
"11:19:57","41.3","39.9","94.7","30.19","135","1.1","4.8","0.00","0.00"
"11:24:58","41.3","39.9","94.6","30.19","135","1.7","4.8","0.00","0.00"
"11:29:56","41.3","39.8","94.4","30.19","150","2.6","6","0.00","0.00"
"11:34:58","41.4","39.9","94.1","30.18","153","2.4","6","0.00","0.00"
"11:39:57","41.5","39.9","94","30.18","127","1.9","5.8","0.00","0.00"
"11:44:59","41.6","40","94","30.18","180","3.5","7.2","0.00","0.00"
"11:49:56","41.6","40","94","30.17","195","3.3","7.2","0.00","0.00"
"11:54:58","41.6","40","94","30.17","210","2.2","5.8","0.00","0.00"
"11:59:56","41.7","40.1","94","30.17","210","1.3","4.6","0.00","0.00"
"12:04:57","41.9","40.3","94","30.16","210","1.1","4.8","0.00","0.00"
"12:09:56","42","40.4","94","30.16","210","1.4","4.6","0.00","0.00"
"12:14:56","42.1","40.4","93.7","30.16","202","1.7","6","0.00","0.00"
"12:19:57","42.1","40.5","93.8","30.15","197","1.8","3.6","0.00","0.00"
"12:24:59","42.2","40.5","93.5","30.15","196","1.7","4.8","0.00","0.00"
"12:29:56","42.3","40.5","93.3","30.15","196","1.9","3.6","0.00","0.00"
"12:34:57","42.4","40.5","93","30.15","195","1.1","4.8","0.00","0.00"
"12:39:57","42.5","40.6","93","30.15","192","1.6","4.6","0.00","0.00"
"12:44:58","42.9","41.1","93.6","30.15","146","1.1","4.8","0.00","0.00"
"12:49:56","43","41","92.7","30.13","142","1","2.4","0.00","0.00"
"12:54:57","43.1","41","92.3","30.13","142","1.4","3.6","0.00","0.00"
"12:59:59","43.2","41","92","30.13","142","1.1","3.6","0.00","0.00"
"13:04:57","43.4","41.2","92","30.13","142","0.8","3.6","0.00","0.00"
"13:09:56","43.5","41.3","92","30.13","142","1.2","3.6","0.00","0.00"
"13:14:59","43.6","41.3","91.4","30.13","143","0.4","2.4","0.00","0.00"
"13:19:57","43.8","41.5","91.6","30.12","142","1.2","3.6","0.00","0.00"
"13:24:58","44.1","41.8","91.8","30.12","143","0.8","3.5","0.00","0.00"
"13:29:56","44.3","41.8","90.8","30.12","143","0.6","2.4","0.00","0.00"
"13:34:57","44.5","41.6","89.7","30.12","142","0.9","2.4","0.00","0.00"
"13:39:56","44.5","41.5","89","30.12","142","1","2.4","0.00","0.00"
"13:44:58","44.6","41.6","88.8","30.12","142","1.4","3.6","0.00","0.00"
"13:49:55","44.8","41.8","89.1","30.12","143","1","3.6","0.00","0.00"
"13:54:57","44.9","41.6","88","30.12","143","1.5","3.6","0.00","0.00"
"13:59:58","45","41.7","88","30.12","143","1.4","4.8","0.00","0.00"
"14:04:56","45","41.4","87.2","30.11","145","2.1","4.6","0.00","0.00"
"14:09:58","44.9","41.3","87","30.11","145","1.3","3.6","0.00","0.00"
"14:14:59","44.9","41.3","87","30.11","132","2.8","6","0.00","0.00"
"14:19:57","44.8","41.2","87","30.10","124","2.3","4.8","0.00","0.00"
"14:24:58","44.8","41.2","87","30.10","123","2.7","7.2","0.00","0.00"
"14:29:59","44.8","41.2","87","30.10","127","2.7","4.8","0.00","0.00"
"14:34:57","44.9","41.2","86.6","30.10","127","2.4","6","0.00","0.00"
"14:39:56","45","41.1","86.2","30.10","128","2.2","4.8","0.00","0.00"
"14:44:57","45.2","41.4","86.3","30.10","134","2.3","4.8","0.00","0.00"
"14:49:59","45.3","41.4","86","30.09","137","1.1","6","0.00","0.00"
"14:54:56","45.3","41.2","85.3","30.09","136","1.5","3.6","0.00","0.00"
"14:59:58","45.3","41.2","85.4","30.10","136","0.9","3.6","0.00","0.00"
"15:04:59","45.4","41.3","85.2","30.10","136","0.4","2.4","0.00","0.00"
"15:09:58","45.7","41.4","85","30.10","136","0.9","2.4","0.00","0.00"
"15:14:57","46.1","41.7","84.8","30.10","136","1.4","2.4","0.00","0.00"
"15:19:59","46.7","42.2","84.4","30.10","136","0.2","1.2","0.00","0.00"
"15:24:57","47.4","42.3","82.3","30.10","136","0.8","2.4","0.00","0.00"
"15:29:59","47.8","42.2","81","30.11","136","0.1","2.3","0.00","0.00"
"15:34:56","48.4","42.7","80.8","30.11","136","0.5","2.4","0.00","0.00"
"15:39:56","48.6","42.4","79.3","30.11","136","0.1","2.3","0.00","0.00"
"15:44:57","48.3","42.1","79.2","30.11","136","1.1","3.6","0.00","0.00"
"15:49:58","47.8","42.1","80.3","30.10","136","1.3","3.5","0.00","0.00"
"15:54:56","47.7","42.1","80.8","30.10","136","0.3","2.4","0.00","0.00"
"15:59:58","47.5","41.8","80.5","30.10","136","0.1","1.2","0.00","0.00"
"16:04:56","47.5","41.9","80.8","30.10","136","0","0","0.00","0.00"
"16:09:59","47.3","41.6","80.5","30.10","136","0","1.2","0.00","0.00"
"16:14:59","46.9","41.2","80.5","30.10","136","0","1.2","0.00","0.00"
"16:19:56","46.6","41.3","81.5","30.10","136","0","0","0.00","0.00"
"16:24:58","46.4","41.2","82","30.10","136","0","0","0.00","0.00"
"16:29:57","46.3","41.1","82","30.10","136","0","0","0.00","0.00"
"16:34:58","46.1","40.9","82","30.10","136","0","1.2","0.00","0.00"
"16:39:59","45.9","40.7","82","30.10","136","0","0","0.00","0.00"
"16:44:57","45.6","40.4","82","30.10","136","0","0","0.00","0.00"
"16:49:59","45.3","40.2","82.4","30.10","136","0","0","0.00","0.00"
"16:54:57","44.9","40","83","30.10","136","0","0","0.00","0.00"
"16:59:59","44.4","39.6","83","30.10","136","0","0","0.00","0.00"
"17:04:57","44","39.5","83.8","30.10","136","0","0","0.00","0.00"
"17:09:56","43.5","39.2","84.6","30.10","136","0","1.2","0.00","0.00"
"17:14:57","43.1","39.2","85.9","30.10","136","0","0","0.00","0.00"
"17:19:59","42.7","38.8","86","30.10","136","0","0","0.00","0.00"
"17:24:57","42.1","38.4","86.5","30.10","136","0","0","0.00","0.00"
"17:29:59","41.7","38.1","87","30.10","136","0","0","0.00","0.00"
"17:34:58","41.2","37.6","87","30.10","136","0","0","0.00","0.00"
"17:39:58","40.8","37.3","87.5","30.10","136","0","0","0.00","0.00"
"17:44:56","40.4","37.4","88.8","30.11","136","0","0","0.00","0.00"
"17:49:57","40.2","37.5","90","30.11","136","0","0","0.00","0.00"
"17:54:56","40.1","37.6","90.7","30.11","136","0","1.2","0.00","0.00"
"17:59:58","40","37.6","91","30.12","136","0.6","2.4","0.00","0.00"
"18:04:56","40","37.7","91.3","30.12","136","0.6","2.4","0.00","0.00"
"18:09:59","40","37.9","92","30.12","136","0.1","2.4","0.00","0.00"
"18:14:59","40","37.9","92","30.12","136","0.5","2.4","0.00","0.00"
"18:19:57","39.9","37.7","91.6","30.12","136","0","0","0.00","0.00"
"18:24:59","39.7","37.3","91","30.12","136","0","0","0.00","0.00"
"18:29:57","39.6","37.2","91","30.13","136","0","0","0.00","0.00"
"18:34:56","39.5","37.3","91.8","30.13","136","0","0","0.00","0.00"
"18:39:59","39.5","37.5","92.3","30.13","136","0.2","2.4","0.00","0.00"
"18:44:57","39.7","37.8","93","30.13","136","0.5","2.3","0.00","0.00"
"18:49:59","39.7","37.8","93","30.12","136","0","1.2","0.00","0.00"
"18:54:57","39.7","37.8","93","30.12","136","0","0","0.00","0.00"
"18:59:59","39.6","37.7","92.8","30.12","136","0","0","0.00","0.00"
"19:04:58","39.6","37.5","92","30.12","136","0","0","0.00","0.00"
"19:09:57","39.5","37.6","92.8","30.12","136","0","0","0.00","0.00"
"19:14:57","39.5","37.6","93","30.12","136","0","0","0.00","0.00"
"19:19:59","39.3","37.3","92.5","30.12","136","0","0","0.00","0.00"
"19:24:55","39.2","37.3","93","30.12","136","0.1","2.4","0.00","0.00"
"19:29:58","39.2","37.3","93","30.13","136","0.6","3.6","0.00","0.00"
"19:34:56","39.3","37.4","93","30.13","136","0.3","2.4","0.00","0.00"
"19:39:56","39.2","37.3","93","30.13","136","0","0","0.00","0.00"
"19:44:58","39.1","37.2","93","30.13","136","0","0","0.00","0.00"
"19:49:56","39.1","37.2","93","30.13","136","0","0","0.00","0.00"
"19:54:58","38.9","36.9","92.7","30.13","136","0","0","0.00","0.00"
"19:59:56","38.6","36.5","92","30.13","136","0","0","0.00","0.00"
"20:04:58","38.3","36.2","92","30.13","136","0","0","0.00","0.00"
"20:09:57","38.1","36.1","92.3","30.13","136","0","0","0.00","0.00"
"20:14:57","37.8","35.7","92","30.13","136","0","0","0.00","0.00"
"20:19:59","37.6","35.6","92.4","30.13","136","0","0","0.00","0.00"
"20:24:57","37.4","35.6","93","30.13","136","0","0","0.00","0.00"
"20:29:56","37.2","35.4","93","30.13","136","0","0","0.00","0.00"
"20:34:58","37.1","35.4","93.4","30.13","136","0","0","0.00","0.00"
"20:39:58","37.2","35.6","94","30.13","136","0","0","0.00","0.00"
"20:44:56","37.2","35.6","94","30.13","136","0","0","0.00","0.00"
"20:49:57","37","35.4","94","30.13","136","0","0","0.00","0.00"
"20:54:56","36.9","35.1","93.5","30.13","136","0","0","0.00","0.00"
"20:59:58","36.7","35.1","94","30.13","136","0","0","0.00","0.00"
"21:04:56","36.5","34.8","93.6","30.13","136","0","0","0.00","0.00"
"21:09:59","35.8","33.9","92.4","30.13","136","0","0","0.00","0.00"
"21:14:59","35.4","33.5","92.8","30.13","136","0","0","0.00","0.00"
"21:19:57","35.1","33.3","93","30.13","136","0","0","0.00","0.00"
"21:24:59","35","33.3","93.5","30.13","136","0","0","0.00","0.00"
"21:29:58","35.3","33.9","94.7","30.13","136","0","0","0.00","0.00"
"21:34:56","35.5","34.1","94.7","30.13","136","0","0","0.00","0.00"
"21:39:57","35.3","33.7","94","30.13","136","0","0","0.00","0.00"
"21:44:59","35.1","33.5","94","30.13","136","0","0","0.00","0.00"
"21:49:57","34.8","33.3","94","30.13","136","0","0","0.00","0.00"
"21:54:56","34.6","33.1","94","30.13","136","0","0","0.00","0.00"
"21:59:58","34.4","32.9","94","30.13","136","0.2","2.4","0.00","0.00"
"22:04:56","34.3","32.8","94","30.13","136","0","1.2","0.00","0.00"
"22:09:59","34.3","32.8","94","30.13","136","0.2","1.2","0.00","0.00"
"22:14:59","34.3","32.9","94.8","30.13","136","0.1","1.2","0.00","0.00"
"22:19:57","34.3","33.1","95","30.13","136","0","1.2","0.00","0.00"
"22:24:59","34.5","33.2","95","30.13","136","0.1","1.2","0.00","0.00"
"22:29:57","34.6","33.3","95","30.13","136","0","1.2","0.00","0.00"
"22:34:59","34.8","33.8","95.9","30.13","136","0","0","0.00","0.00"
"22:39:56","35.1","34","95.7","30.13","136","0","1.2","0.00","0.00"
"22:44:58","35","33.7","95","30.13","136","0","0","0.00","0.00"
"22:49:56","34.8","33.5","95","30.13","136","0","0","0.00","0.00"
"22:54:58","34.7","33.2","94.1","30.13","136","0","0","0.00","0.00"
"22:59:56","34.5","33","94","30.13","136","0","1.2","0.00","0.00"
"23:04:59","34.2","32.7","94","30.13","136","0","0","0.00","0.00"
"23:09:58","34","32.5","94","30.13","136","0","0","0.00","0.00"
"23:14:58","34","32.7","95","30.13","136","0.5","2.4","0.00","0.00"
"23:19:56","34.1","32.8","95.1","30.13","136","0.2","2.4","0.00","0.00"
"23:24:58","34.4","33.4","96","30.13","136","0.3","2.4","0.00","0.00"
"23:29:56","34.8","33.8","96","30.13","136","0.6","2.3","0.00","0.00"
"23:34:58","35.1","34.1","96","30.13","136","0.5","1.2","0.00","0.00"
"23:39:59","35.3","34.3","95.8","30.13","136","0.1","1.2","0.00","0.00"
"23:44:57","35.2","33.9","95","30.13","136","0","0","0.00","0.00"
